Change the Weather History Date:

Tuesday, January 29, 2013

  Actual Average Record
Temperature  
Mean Temperature 74 °F -  
Max Temperature 86 °F 61 °F 86 °F (2013)
Min Temperature 59 °F 42 °F 30 °F (2014)
Cooling Degree Days 8    
Growing Degree Days 24 (Base 50)    
Moisture  
Dew Point 57 °F    
Average Humidity 65    
Maximum Humidity 93    
Minimum Humidity 26    
Precipitation  
Precipitation 0.00 in - - ()
Sea Level Pressure  
Sea Level Pressure 29.70 in    
Wind  
Wind Speed 11 mph (SSE)    
Max Wind Speed 25 mph    
Max Gust Speed 53 mph    
Visibility 9 miles    
Events Rain    
Averages and records for this station are not official NWS values.
T = Trace of Precipitation, MM = Missing Value Source: NWS Daily Summary

Daily Weather History Graph

Daily Weather History Graph

Search for Another Location

Airport or City:

Trip Planner

Search our weather history database for the weather conditions in past years. The results will help you decide how hot, cold, wet, or windy it might be!

Date:

Astronomy

Jan. 29, 2013 Rise Set
Actual Time 7:24 AM CST 6:09 PM CST
Civil Twilight 6:59 AM CST 6:34 PM CST
Nautical Twilight 6:30 AM CST 7:03 PM CST
Astronomical Twilight 6:02 AM CST 7:31 PM CST
Moon 8:49 PM CST (1/29) 8:38 AM CST (1/29)
Length of Visible Light 11h 35m
Length of Day
10h 45m
Waning Gibbous, 93% of the Moon is Illuminated
Jan 29
Waning Gibbous
Feb 3
Last Quarter
Feb 10
New
Feb 17
First Quarter
Feb 25
Full

Hourly Weather History & Observations

Time (CST) Temp. Heat Index Dew Point Humidity Pressure Visibility Wind Dir Wind Speed Gust Speed Precip Events Conditions
12:53 AM 71.1 °F - 66.9 °F 87% 29.83 in 9.0 mi SSE 9.2 mph 18.4 mph N/A   Overcast
1:53 AM 71.1 °F - 66.9 °F 87% 29.81 in 10.0 mi SE 11.5 mph - N/A   Overcast
2:53 AM 71.1 °F - 66.9 °F 87% 29.80 in 10.0 mi SSE 10.4 mph - N/A   Overcast
3:53 AM 71.1 °F - 66.9 °F 87% 29.79 in 10.0 mi SSE 9.2 mph - N/A   Overcast
4:53 AM 70.0 °F - 66.9 °F 90% 29.77 in 9.0 mi SE 8.1 mph - N/A   Overcast
5:13 AM 69.8 °F - 66.2 °F 88% 29.79 in 8.0 mi SE 10.4 mph - N/A   Overcast
5:53 AM 70.0 °F - 66.9 °F 90% 29.75 in 7.0 mi SE 10.4 mph - N/A   Overcast
6:19 AM 69.8 °F - 66.2 °F 88% 29.76 in 7.0 mi ESE 10.4 mph - N/A   Overcast
6:44 AM 69.8 °F - 66.2 °F 88% 29.76 in 7.0 mi SE 10.4 mph - N/A   Overcast
6:53 AM 69.1 °F - 66.9 °F 93% 29.74 in 7.0 mi SE 10.4 mph - N/A   Overcast
7:23 AM 69.8 °F - 66.2 °F 88% 29.76 in 6.0 mi SE 6.9 mph - N/A   Overcast
7:53 AM 69.1 °F - 66.9 °F 93% 29.73 in 7.0 mi SE 8.1 mph - N/A   Overcast
8:22 AM 69.8 °F - 66.2 °F 88% 29.74 in 7.0 mi SE 8.1 mph - N/A   Overcast
8:31 AM 69.8 °F - 66.2 °F 88% 29.73 in 7.0 mi SE 10.4 mph - N/A   Overcast
8:38 AM 69.8 °F - 66.2 °F 88% 29.72 in 7.0 mi SE 11.5 mph - N/A   Overcast
8:53 AM 70.0 °F - 66.9 °F 90% 29.70 in 8.0 mi SSE 8.1 mph - N/A   Overcast
9:53 AM 73.0 °F - 66.0 °F 79% 29.70 in 9.0 mi South 18.4 mph 24.2 mph N/A   Overcast
10:53 AM 75.9 °F - 66.0 °F 71% 29.70 in 9.0 mi South 15.0 mph 23.0 mph 0.00 in Rain Light Rain
11:30 AM 77.0 °F - 64.4 °F 65% 29.70 in 9.0 mi South 17.3 mph 24.2 mph 0.00 in Rain Light Rain
11:53 AM 78.1 °F - 64.9 °F 64% 29.66 in 9.0 mi South 12.7 mph 23.0 mph 0.00 in Rain Light Rain
12:53 PM 80.1 °F 81.7 °F 64.0 °F 58% 29.60 in 9.0 mi South 12.7 mph - 0.00 in   Clear
1:53 PM 81.0 °F 81.3 °F 59.0 °F 47% 29.57 in 10.0 mi SSW 17.3 mph 24.2 mph N/A   Clear
2:53 PM 82.0 °F 81.4 °F 55.0 °F 39% 29.52 in 10.0 mi SSW 13.8 mph 19.6 mph N/A   Clear
3:53 PM 86.0 °F - 50.0 °F 29% 29.49 in 9.0 mi SSW 20.7 mph 31.1 mph N/A   Clear
4:53 PM 84.9 °F - 50.0 °F 30% 29.48 in 10.0 mi South 15.0 mph 21.9 mph N/A   Clear
5:53 PM 75.0 °F - 46.9 °F 37% 29.54 in 6.0 mi NNW 25.3 mph 52.9 mph N/A   Haze
6:05 PM 71.6 °F - 44.6 °F 38% 29.59 in 10.0 mi NNW 25.3 mph 31.1 mph N/A   Clear
6:53 PM 68.0 °F - 39.9 °F 36% 29.63 in 10.0 mi NNW 15.0 mph 21.9 mph N/A   Clear
7:53 PM 66.9 °F - 34.0 °F 30% 29.69 in 10.0 mi NNW 12.7 mph - N/A   Clear
8:53 PM 64.9 °F - 33.1 °F 31% 29.71 in 10.0 mi NNW 6.9 mph - N/A   Mostly Cloudy
9:53 PM 63.0 °F - 32.0 °F 31% 29.74 in 10.0 mi NNW 6.9 mph - N/A   Partly Cloudy
10:53 PM 61.0 °F - 27.0 °F 27% 29.78 in 10.0 mi North 6.9 mph - N/A   Clear
11:53 PM 59.0 °F - 24.1 °F 26% 29.82 in 10.0 mi NNW 9.2 mph - N/A   Overcast